User: anonymous   Login
Location: Prague
(50.0830°N, 14.4670°E)
Time: 22:00:53
(UTC+01:00)
Language:

QB50P2 - Orbit

View from above orbital plane
View from above orbital plane
View from above satellite
View from above satellite

Ground track
Ground track

The orbit data is extracted from the following two-line orbital elements,

1 40032U 14033Y   21335.23910885  .00000930  00000-0  10444-3 0  9998
2 40032  97.9251 262.5128 0011643 354.6878   5.4214 14.89162921404115
Epoch (UTC): 01 December 2021 05:44:19
Eccentricity: 0.0011643
inclination: 97.9251°
perigee height: 592 km
apogee height: 608 km
right ascension of ascending node: 262.5128°
argument of perigee: 354.6878°
revolutions per day: 14.89162921
mean anomaly at epoch: 5.4214°
orbit number at epoch: 40411

The dashed part of the orbit path shows where the satellite is in the earth's shadow,  

DLR